| time (UTC) | temp F | wind direction | speed MPH | gust MPH | rain 1hr in | rain 24hr in | rain mn in | humidity % | barometer mb |
| 20260902155004 | 65 | 147 | 0.0 | 8.0 | 0.23 | 0.34 | 0.34 | 90 | 1017.2 |
| 20260902154535 | 65 | 158 | 0.0 | 0.0 | 0.23 | 0.33 | 0.33 | 91 | 1017.8 |
| 20260902154056 | 65 | 146 | 0.0 | 1.0 | 0.24 | 0.33 | 0.33 | 91 | 1018.1 |
| 20260902153623 | 65 | 144 | 0.0 | 3.0 | 0.25 | 0.33 | 0.33 | 91 | 1018.1 |
| 20260902153147 | 65 | 135 | 0.0 | 6.0 | 0.25 | 0.32 | 0.32 | 91 | 1018.4 |
| 20260902152506 | 66 | 177 | 1.0 | 8.0 | 0.25 | 0.30 | 0.30 | 91 | 1019.3 |
| 20260902152029 | 66 | 255 | 1.0 | 10.0 | 0.25 | 0.27 | 0.27 | 91 | 1019.5 |
| 20260902151545 | 66 | 220 | 3.0 | 11.0 | 0.21 | 0.23 | 0.23 | 91 | 1019.5 |
| 20260902151104 | 67 | 249 | 3.0 | 11.0 | 0.18 | 0.19 | 0.19 | 91 | 1019.7 |
| 20260902150621 | 67 | 220 | 1.0 | 6.0 | 0.14 | 0.15 | 0.15 | 91 | 1019.8 |
| 20260902150145 | 68 | 293 | 0.0 | 1.0 | 0.13 | 0.13 | 0.13 | 91 | 1019.3 |
| 20260902145513 | 68 | 272 | 0.0 | 3.0 | 0.11 | 0.11 | 0.11 | 91 | 1018.6 |
| 20260902145031 | 69 | 227 | 0.0 | 3.0 | 0.11 | 0.11 | 0.11 | 91 | 1018.4 |
| 20260902144552 | 69 | 131 | 0.0 | 2.0 | 0.10 | 0.10 | 0.10 | 90 | 1018.1 |
| 20260902144100 | 69 | 238 | 0.0 | 6.0 | 0.09 | 0.09 | 0.09 | 91 | 1017.7 |
| 20260902143619 | 69 | 255 | 0.0 | 6.0 | 0.08 | 0.08 | 0.08 | 91 | 1017.9 |
| 20260902143037 | 70 | 223 | 0.0 | 4.0 | 0.06 | 0.06 | 0.06 | 91 | 1018.2 |
| 20260902142555 | 70 | 278 | 0.0 | 4.0 | 0.05 | 0.05 | 0.05 | 91 | 1018.4 |
| 20260902142113 | 70 | 235 | 0.0 | 1.0 | 0.02 | 0.02 | 0.02 | 91 | 1018.1 |
| 20260902141636 | 70 | 196 | 0.0 | 3.0 | 0.02 | 0.02 | 0.02 | 91 | 1017.7 |
| 20260902141123 | 70 | 129 | 0.0 | 4.0 | 0.01 | 0.01 | 0.01 | 91 | 1017.3 |
| 20260902140507 | 70 | 153 | 0.0 | 3.0 | 0.01 | 0.01 | 0.01 | 91 | 1017.2 |
| 20260902140033 | 70 | 207 | 0.0 | 8.0 | 0.00 | 0.00 | 0.00 | 91 | 1017.1 |
| 20260902135553 | 70 | 53 | 0.0 | 8.0 | 0.00 | 0.01 | 0.00 | 91 | 1016.8 |
| 20260902135108 | 70 | 176 | 0.0 | 6.0 | 0.00 | 0.01 | 0.00 | 91 | 1016.8 |
| 20260902134533 | 70 | 134 | 0.0 | 2.0 | 0.00 | 0.01 | 0.00 | 91 | 1017.0 |
| 20260902134050 | 70 | 162 | 0.0 | 2.0 | 0.00 | 0.01 | 0.00 | 91 | 1017.1 |
| 20260902133613 | 70 | 159 | 0.0 | 2.0 | 0.00 | 0.01 | 0.00 | 91 | 1017.2 |
| 20260902133012 | 70 | 203 | 0.0 | 3.0 | 0.00 | 0.01 | 0.00 | 91 | 1017.3 |
| 20260902132528 | 70 | 155 | 0.0 | 6.0 | 0.00 | 0.01 | 0.00 | 91 | 1017.3 |
| 20260902132046 | 70 | 126 | 0.0 | 6.0 | 0.00 | 0.01 | 0.00 | 91 | 1017.2 |
| 20260902131622 | 70 | 158 | 0.0 | 5.0 | 0.00 | 0.01 | 0.00 | 91 | 1017.2 |
| 20260902131007 | 70 | 249 | 0.0 | 11.0 | 0.00 | 0.01 | 0.00 | 91 | 1017.0 |
| 20260902130527 | 70 | 155 | 4.0 | 11.0 | 0.00 | 0.01 | 0.00 | 91 | 1017.1 |
| 20260902130101 | 70 | 150 | 1.0 | 6.0 | 0.00 | 0.01 | 0.00 | 91 | 1017.1 |
| 20260902125616 | 70 | 183 | 1.0 | 7.0 | 0.00 | 0.01 | 0.00 | 91 | 1017.1 |
| 20260902125135 | 70 | 144 | 0.0 | 10.0 | 0.00 | 0.01 | 0.00 | 91 | 1016.9 |
| 20260902124550 | 70 | 143 | 1.0 | 7.0 | 0.00 | 0.01 | 0.00 | 91 | 1017.0 |
| 20260902124059 | 70 | 168 | 1.0 | 6.0 | 0.00 | 0.01 | 0.00 | 91 | 1017.1 |
| 20260902123616 | 70 | 148 | 0.0 | 7.0 | 0.00 | 0.01 | 0.00 | 91 | 1017.2 |
| 20260902123141 | 70 | 160 | 1.0 | 8.0 | 0.00 | 0.01 | 0.00 | 91 | 1017.1 |
| 20260902122505 | 69 | 172 | 0.0 | 10.0 | 0.00 | 0.01 | 0.00 | 91 | 1017.3 |
| 20260902122024 | 69 | 117 | 1.0 | 10.0 | 0.00 | 0.01 | 0.00 | 91 | 1017.1 |
| 20260902121606 | 69 | 143 | 1.0 | 10.0 | 0.00 | 0.01 | 0.00 | 91 | 1016.9 |
| 20260902121114 | 69 | 124 | 2.0 | 10.0 | 0.00 | 0.01 | 0.00 | 91 | 1016.6 |
| 20260902120633 | 69 | 151 | 1.0 | 9.0 | 0.00 | 0.01 | 0.00 | 91 | 1016.5 |
| 20260902120033 | 68 | 86 | 2.0 | 11.0 | 0.00 | 0.01 | 0.00 | 90 | 1016.5 |
| 20260902115554 | 68 | 131 | 2.0 | 14.0 | 0.00 | 0.01 | 0.00 | 90 | 1016.4 |
| 20260902115111 | 68 | 134 | 1.0 | 15.0 | 0.00 | 0.01 | 0.00 | 89 | 1016.6 |
| 20260902114502 | 68 | 169 | 6.0 | 15.0 | 0.00 | 0.01 | 0.00 | 89 | 1016.5 |
| 20260902114017 | 68 | 119 | 2.0 | 10.0 | 0.00 | 0.01 | 0.00 | 89 | 1016.6 |
| 20260902113533 | 67 | 141 | 1.0 | 10.0 | 0.00 | 0.01 | 0.00 | 89 | 1016.5 |
| 20260902113104 | 67 | 135 | 1.0 | 9.0 | 0.00 | 0.01 | 0.00 | 89 | 1016.5 |
| 20260902112133 | 67 | 178 | 2.0 | 11.0 | 0.00 | 0.01 | 0.00 | 89 | 1016.6 |
| 20260902111544 | 67 | 137 | 0.0 | 10.0 | 0.00 | 0.01 | 0.00 | 89 | 1016.4 |
| 20260902111056 | 67 | 122 | 0.0 | 9.0 | 0.00 | 0.01 | 0.00 | 89 | 1016.5 |
| 20260902110616 | 67 | 154 | 1.0 | 10.0 | 0.00 | 0.01 | 0.00 | 89 | 1016.4 |
| 20260902110034 | 67 | 186 | 0.0 | 11.0 | 0.00 | 0.01 | 0.00 | 89 | 1016.4 |
| 20260902105554 | 67 | 172 | 2.0 | 11.0 | 0.00 | 0.01 | 0.00 | 89 | 1016.2 |
| 20260902105113 | 67 | 135 | 0.0 | 13.0 | 0.00 | 0.01 | 0.00 | 89 | 1016.2 |
| 20260902104546 | 67 | 86 | 2.0 | 12.0 | 0.00 | 0.01 | 0.00 | 89 | 1016.3 |
| 20260902104054 | 67 | 197 | 1.0 | 12.0 | 0.00 | 0.01 | 0.00 | 89 | 1016.3 |
| 20260902103619 | 67 | 150 | 0.0 | 3.0 | 0.00 | 0.01 | 0.00 | 89 | 1016.4 |
| 20260902103038 | 67 | 159 | 0.0 | 3.0 | 0.00 | 0.01 | 0.00 | 89 | 1016.6 |
| 20260902102555 | 67 | 168 | 0.0 | 6.0 | 0.00 | 0.01 | 0.00 | 89 | 1016.6 |
| 20260902102116 | 67 | 141 | 0.0 | 6.0 | 0.00 | 0.01 | 0.00 | 89 | 1016.7 |
| 20260902101639 | 67 | 165 | 0.0 | 1.0 | 0.00 | 0.01 | 0.00 | 89 | 1016.7 |
| 20260902101016 | 67 | 146 | 0.0 | 1.0 | 0.00 | 0.01 | 0.00 | 89 | 1016.9 |
| 20260902100539 | 67 | 91 | 0.0 | 2.0 | 0.00 | 0.01 | 0.00 | 89 | 1016.7 |
| 20260902100049 | 67 | 120 | 0.0 | 5.0 | 0.00 | 0.01 | 0.00 | 89 | 1016.8 |
| 20260902095606 | 67 | 148 | 0.0 | 5.0 | 0.00 | 0.05 | 0.00 | 89 | 1016.8 |
| 20260902095127 | 67 | 139 | 0.0 | 1.0 | 0.00 | 0.05 | 0.00 | 89 | 1016.7 |
| 20260902094647 | 67 | 124 | 0.0 | 3.0 | 0.00 | 0.05 | 0.00 | 89 | 1016.7 |
| 20260902094009 | 67 | 114 | 0.0 | 3.0 | 0.00 | 0.05 | 0.00 | 89 | 1016.9 |
| 20260902093531 | 67 | 126 | 0.0 | 2.0 | 0.00 | 0.05 | 0.00 | 89 | 1017.0 |
| 20260902093045 | 66 | 154 | 0.0 | 2.0 | 0.00 | 0.05 | 0.00 | 89 | 1016.8 |
| 20260902092604 | 66 | 148 | 0.0 | 2.0 | 0.00 | 0.05 | 0.00 | 90 | 1016.9 |
| 20260902092125 | 66 | 148 | 0.0 | 1.0 | 0.00 | 0.05 | 0.00 | 90 | 1016.7 |
| 20260902091543 | 66 | 142 | 0.0 | 1.0 | 0.00 | 0.05 | 0.00 | 90 | 1016.6 |
| 20260902091101 | 66 | 241 | 0.0 | 1.0 | 0.00 | 0.05 | 0.00 | 90 | 1016.6 |
| 20260902090617 | 66 | 169 | 0.0 | 1.0 | 0.00 | 0.05 | 0.00 | 90 | 1016.7 |
| 20260902090037 | 66 | 134 | 0.0 | 1.0 | 0.00 | 0.05 | 0.00 | 90 | 1016.9 |
| 20260902085554 | 66 | 91 | 0.0 | 1.0 | 0.00 | 0.05 | 0.00 | 90 | 1017.0 |
| 20260902085110 | 66 | 148 | 0.0 | 0.0 | 0.00 | 0.05 | 0.00 | 90 | 1017.0 |
| 20260902084635 | 66 | 159 | 0.0 | 0.0 | 0.00 | 0.05 | 0.00 | 90 | 1017.0 |
| 20260902084012 | 66 | 182 | 0.0 | 0.0 | 0.00 | 0.05 | 0.00 | 90 | 1017.0 |
| 20260902083531 | 66 | 183 | 0.0 | 0.0 | 0.00 | 0.05 | 0.00 | 90 | 1017.0 |
| 20260902083116 | 66 | 128 | 0.0 | 0.0 | 0.00 | 0.05 | 0.00 | 90 | 1017.0 |
| 20260902082620 | 66 | 159 | 0.0 | 0.0 | 0.00 | 0.00 | 0.00 | 90 | 1017.0 |
| 20260902082003 | 66 | 148 | 0.0 | 0.0 | 0.00 | 0.05 | 0.00 | 90 | 1016.8 |
| 20260902081546 | 66 | 154 | 0.0 | 0.0 | 0.00 | 0.05 | 0.00 | 90 | 1016.9 |
| 20260902081105 | 65 | 147 | 0.0 | 1.0 | 0.00 | 0.05 | 0.00 | 90 | 1016.9 |
| 20260902080620 | 65 | 142 | 0.0 | 1.0 | 0.00 | 0.05 | 0.00 | 90 | 1016.9 |
| 20260902080041 | 65 | 121 | 0.0 | 0.0 | 0.00 | 0.05 | 0.00 | 90 | 1016.9 |
| 20260902075600 | 65 | 140 | 0.0 | 0.0 | 0.00 | 0.08 | 0.00 | 90 | 1016.9 |
| 20260902075120 | 65 | 156 | 0.0 | 0.0 | 0.00 | 0.08 | 0.00 | 89 | 1016.8 |
| 20260902074531 | 65 | 166 | 0.0 | 0.0 | 0.00 | 0.08 | 0.00 | 89 | 1016.8 |
| 20260902074049 | 65 | 143 | 0.0 | 0.0 | 0.00 | 0.08 | 0.00 | 89 | 1016.8 |
| 20260902073608 | 65 | 159 | 0.0 | 0.0 | 0.00 | 0.08 | 0.00 | 89 | 1016.7 |
| 20260902073007 | 65 | 182 | 0.0 | 0.0 | 0.00 | 0.08 | 0.00 | 89 | 1016.7 |
| 20260902072526 | 65 | 114 | 0.0 | 0.0 | 0.00 | 0.08 | 0.00 | 89 | 1016.6 |
| 20260902072047 | 65 | 130 | 0.0 | 0.0 | 0.00 | 0.08 | 0.00 | 89 | 1016.6 |
| 20260902071600 | 65 | 116 | 0.0 | 0.0 | 0.00 | 0.08 | 0.00 | 89 | 1016.6 |
| 20260902071121 | 65 | 151 | 0.0 | 0.0 | 0.00 | 0.08 | 0.00 | 89 | 1016.6 |
| 20260902070500 | 65 | 111 | 0.0 | 0.0 | 0.00 | 0.08 | 0.00 | 89 | 1016.5 |
| 20260902070152 | 65 | 153 | 0.0 | 0.0 | 0.00 | 0.08 | 0.00 | 89 | 1016.5 |
| 20260902065512 | 65 | 164 | 0.0 | 0.0 | 0.00 | 0.08 | 0.00 | 89 | 1016.5 |
| 20260902065034 | 65 | 110 | 0.0 | 0.0 | 0.00 | 0.08 | 0.00 | 89 | 1016.6 |
| 20260902064557 | 65 | 159 | 0.0 | 0.0 | 0.00 | 0.08 | 0.00 | 89 | 1016.6 |
| 20260902064111 | 65 | 130 | 0.0 | 0.0 | 0.00 | 0.08 | 0.00 | 89 | 1016.7 |
| 20260902063500 | 65 | 137 | 0.0 | 0.0 | 0.00 | 0.08 | 0.00 | 89 | 1016.7 |
| 20260902063045 | 65 | 136 | 0.0 | 0.0 | 0.00 | 0.08 | 0.00 | 89 | 1016.8 |
| 20260902062601 | 65 | 165 | 0.0 | 0.0 | 0.00 | 0.08 | 0.00 | 89 | 1016.8 |
| 20260902062120 | 65 | 140 | 0.0 | 0.0 | 0.00 | 0.08 | 0.00 | 89 | 1016.8 |
| 20260902061546 | 65 | 140 | 0.0 | 0.0 | 0.00 | 0.08 | 0.00 | 89 | 1016.8 |
| 20260902061059 | 65 | 144 | 0.0 | 0.0 | 0.00 | 0.08 | 0.00 | 89 | 1016.8 |
| 20260902060614 | 66 | 136 | 0.0 | 0.0 | 0.00 | 0.08 | 0.00 | 89 | 1016.8 |
| 20260902060136 | 66 | 129 | 0.0 | 0.0 | 0.00 | 0.08 | 0.00 | 89 | 1016.8 |
| 20260902055502 | 66 | 129 | 0.0 | 0.0 | 0.00 | 0.09 | 0.00 | 89 | 1016.8 |
| 20260902055015 | 66 | 158 | 0.0 | 0.0 | 0.00 | 0.09 | 0.00 | 89 | 1016.7 |
| 20260902054542 | 66 | 150 | 0.0 | 0.0 | 0.00 | 0.09 | 0.00 | 89 | 1016.8 |
| 20260902054103 | 66 | 162 | 0.0 | 0.0 | 0.00 | 0.09 | 0.00 | 89 | 1016.7 |
| 20260902053620 | 66 | 146 | 0.0 | 0.0 | 0.00 | 0.09 | 0.00 | 89 | 1016.7 |
| 20260902053046 | 66 | 159 | 0.0 | 0.0 | 0.00 | 0.09 | 0.00 | 89 | 1016.8 |
| 20260902052556 | 66 | 150 | 0.0 | 0.0 | 0.00 | 0.09 | 0.00 | 89 | 1016.7 |
| 20260902052117 | 67 | 161 | 0.0 | 0.0 | 0.00 | 0.09 | 0.00 | 89 | 1016.6 |
| 20260902051636 | 67 | 120 | 0.0 | 0.0 | 0.00 | 0.09 | 0.00 | 89 | 1016.5 |
| 20260902051010 | 67 | 133 | 0.0 | 0.0 | 0.00 | 0.09 | 0.00 | 89 | 1016.5 |
| 20260902050529 | 67 | 137 | 0.0 | 0.0 | 0.00 | 0.09 | 0.00 | 89 | 1016.5 |
| 20260902050052 | 67 | 148 | 0.0 | 0.0 | 0.00 | 0.09 | 0.00 | 89 | 1016.5 |
| 20260902045605 | 67 | 148 | 0.0 | 0.0 | 0.00 | 0.09 | 0.00 | 89 | 1016.5 |
| 20260902045125 | 67 | 127 | 0.0 | 0.0 | 0.00 | 0.09 | 0.00 | 90 | 1016.4 |
| 20260902044541 | 68 | 123 | 0.0 | 0.0 | 0.00 | 0.09 | 0.00 | 90 | 1016.4 |
| 20260902044054 | 68 | 143 | 0.0 | 0.0 | 0.00 | 0.09 | 0.00 | 90 | 1016.4 |
| 20260902043612 | 68 | 125 | 0.0 | 0.0 | 0.00 | 0.09 | 0.00 | 90 | 1016.5 |
| 20260902043042 | 68 | 139 | 0.0 | 0.0 | 0.00 | 0.09 | 0.00 | 90 | 1016.5 |
| 20260902042555 | 68 | 116 | 0.0 | 0.0 | 0.00 | 0.09 | 0.00 | 90 | 1016.4 |
| 20260902042114 | 68 | 128 | 0.0 | 0.0 | 0.00 | 0.09 | 0.00 | 90 | 1016.3 |
| 20260902041514 | 68 | 129 | 0.0 | 0.0 | 0.00 | 0.09 | 0.00 | 90 | 1016.3 |
| 20260902041034 | 68 | 133 | 0.0 | 0.0 | 0.00 | 0.09 | 0.00 | 90 | 1016.3 |
| 20260902040548 | 68 | 113 | 0.0 | 0.0 | 0.00 | 0.09 | 0.00 | 90 | 1016.4 |
| 20260902040052 | 68 | 144 | 0.0 | 0.0 | 0.00 | 0.09 | 0.00 | 90 | 1016.3 |
| 20260902035506 | 68 | 174 | 0.0 | 0.0 | 0.00 | 0.10 | 0.09 | 90 | 1016.4 |
| 20260902035019 | 68 | 119 | 0.0 | 0.0 | 0.00 | 0.10 | 0.09 | 90 | 1016.3 |
| 20260902034543 | 68 | 119 | 0.0 | 0.0 | 0.00 | 0.10 | 0.09 | 90 | 1016.3 |
| 20260902034101 | 68 | 98 | 0.0 | 0.0 | 0.00 | 0.10 | 0.09 | 90 | 1016.3 |
| 20260902033623 | 68 | 130 | 0.0 | 0.0 | 0.00 | 0.10 | 0.09 | 90 | 1016.3 |
| 20260902033044 | 68 | 133 | 0.0 | 0.0 | 0.00 | 0.10 | 0.09 | 90 | 1016.4 |
| 20260902032601 | 68 | 144 | 0.0 | 0.0 | 0.00 | 0.10 | 0.09 | 90 | 1016.4 |
| 20260902032119 | 68 | 144 | 0.0 | 0.0 | 0.00 | 0.10 | 0.09 | 90 | 1016.3 |
| 20260902031543 | 68 | 144 | 0.0 | 0.0 | 0.00 | 0.10 | 0.09 | 90 | 1016.4 |
| 20260902031101 | 68 | 138 | 0.0 | 0.0 | 0.00 | 0.10 | 0.09 | 90 | 1016.3 |
| 20260902030623 | 68 | 131 | 0.0 | 0.0 | 0.00 | 0.10 | 0.09 | 90 | 1016.3 |
| 20260902030145 | 68 | 133 | 0.0 | 0.0 | 0.00 | 0.10 | 0.09 | 90 | 1016.2 |
| 20260902025501 | 68 | 171 | 0.0 | 0.0 | 0.00 | 0.10 | 0.09 | 90 | 1016.2 |
| 20260902025021 | 68 | 248 | 0.0 | 0.0 | 0.00 | 0.10 | 0.09 | 91 | 1016.2 |
| 20260902024555 | 69 | 164 | 0.0 | 0.0 | 0.00 | 0.10 | 0.09 | 91 | 1016.2 |
| 20260902024119 | 69 | 132 | 0.0 | 0.0 | 0.00 | 0.10 | 0.09 | 91 | 1016.2 |
| 20260902023635 | 69 | 131 | 0.0 | 0.0 | 0.00 | 0.10 | 0.09 | 91 | 1016.3 |
| 20260902023039 | 69 | 131 | 0.0 | 0.0 | 0.00 | 0.10 | 0.09 | 91 | 1016.3 |
| 20260902022559 | 69 | 131 | 0.0 | 0.0 | 0.00 | 0.10 | 0.09 | 90 | 1016.3 |
| 20260902022117 | 69 | 131 | 0.0 | 0.0 | 0.00 | 0.10 | 0.09 | 91 | 1016.4 |
| 20260902021531 | 69 | 131 | 0.0 | 0.0 | 0.00 | 0.10 | 0.09 | 91 | 1016.5 |
| 20260902021054 | 69 | 132 | 0.0 | 0.0 | 0.00 | 0.10 | 0.09 | 91 | 1016.5 |
| 20260902020613 | 69 | 131 | 0.0 | 0.0 | 0.00 | 0.10 | 0.09 | 91 | 1016.5 |
| 20260902020136 | 69 | 131 | 0.0 | 0.0 | 0.00 | 0.10 | 0.09 | 91 | 1016.5 |
| 20260902015508 | 69 | 132 | 0.0 | 0.0 | 0.00 | 0.10 | 0.09 | 91 | 1016.4 |
| 20260902015027 | 69 | 131 | 0.0 | 0.0 | 0.00 | 0.10 | 0.09 | 91 | 1016.4 |
| 20260902014600 | 69 | 132 | 0.0 | 0.0 | 0.00 | 0.10 | 0.09 | 91 | 1016.4 |
| 20260902014120 | 69 | 131 | 0.0 | 0.0 | 0.00 | 0.10 | 0.09 | 91 | 1016.4 |
| 20260902013506 | 69 | 132 | 0.0 | 0.0 | 0.00 | 0.10 | 0.09 | 91 | 1016.4 |
| 20260902013154 | 69 | 131 | 0.0 | 0.0 | 0.00 | 0.10 | 0.09 | 91 | 1016.3 |
| 20260902012513 | 69 | 131 | 0.0 | 0.0 | 0.00 | 0.10 | 0.09 | 91 | 1016.3 |
| 20260902012031 | 69 | 140 | 0.0 | 0.0 | 0.00 | 0.10 | 0.09 | 91 | 1016.2 |
| 20260902011557 | 69 | 150 | 0.0 | 0.0 | 0.00 | 0.10 | 0.09 | 91 | 1016.0 |
| 20260902011101 | 69 | 176 | 0.0 | 0.0 | 0.00 | 0.10 | 0.09 | 91 | 1016.0 |
| 20260902010622 | 69 | 168 | 0.0 | 0.0 | 0.00 | 0.10 | 0.09 | 92 | 1016.0 |
| 20260902010033 | 69 | 130 | 0.0 | 0.0 | 0.00 | 0.10 | 0.09 | 91 | 1016.0 |
| 20260902005549 | 69 | 103 | 0.0 | 0.0 | 0.00 | 0.10 | 0.09 | 91 | 1015.9 |
| 20260902005112 | 70 | 81 | 0.0 | 0.0 | 0.00 | 0.10 | 0.09 | 91 | 1015.8 |
| 20260902004501 | 70 | 93 | 0.0 | 0.0 | 0.00 | 0.10 | 0.09 | 91 | 1015.7 |
| 20260902004018 | 70 | 95 | 0.0 | 0.0 | 0.00 | 0.10 | 0.09 | 91 | 1015.5 |
| 20260902003533 | 70 | 77 | 0.0 | 0.0 | 0.00 | 0.10 | 0.09 | 91 | 1015.4 |
| 20260902003045 | 69 | 87 | 0.0 | 0.0 | 0.00 | 0.10 | 0.09 | 91 | 1015.2 |
| 20260902002606 | 69 | 80 | 0.0 | 0.0 | 0.00 | 0.10 | 0.09 | 91 | 1015.1 |
| 20260902002124 | 69 | 89 | 0.0 | 0.0 | 0.00 | 0.10 | 0.09 | 91 | 1015.2 |
| 20260902001535 | 69 | 79 | 0.0 | 0.0 | 0.00 | 0.10 | 0.09 | 91 | 1015.1 |
| 20260902001057 | 69 | 79 | 0.0 | 0.0 | 0.00 | 0.10 | 0.09 | 91 | 1015.1 |
| 20260902000613 | 69 | 86 | 0.0 | 0.0 | 0.00 | 0.10 | 0.09 | 92 | 1015.1 |
| 20260902000039 | 70 | 92 | 0.0 | 0.0 | 0.00 | 0.10 | 0.09 | 92 | 1014.9 |
| 20260901235548 | 70 | 93 | 0.0 | 0.0 | 0.00 | 0.10 | 0.09 | 92 | 1014.8 |
| 20260901235114 | 70 | 117 | 0.0 | 0.0 | 0.00 | 0.10 | 0.09 | 92 | 1014.8 |
| 20260901234525 | 70 | 112 | 0.0 | 0.0 | 0.00 | 0.10 | 0.09 | 92 | 1014.8 |
| 20260901234043 | 71 | 95 | 0.0 | 0.0 | 0.00 | 0.10 | 0.09 | 92 | 1014.9 |
| 20260901233624 | 71 | 79 | 0.0 | 0.0 | 0.00 | 0.10 | 0.09 | 91 | 1014.9 |
| 20260901233028 | 71 | 81 | 0.0 | 0.0 | 0.00 | 0.10 | 0.09 | 91 | 1015.1 |
| 20260901232550 | 71 | 73 | 0.0 | 0.0 | 0.00 | 0.10 | 0.09 | 91 | 1015.1 |
| 20260901232111 | 72 | 77 | 0.0 | 0.0 | 0.00 | 0.10 | 0.09 | 91 | 1015.1 |
| 20260901231633 | 72 | 45 | 0.0 | 0.0 | 0.00 | 0.10 | 0.09 | 91 | 1015.1 |
| 20260901231009 | 72 | 65 | 0.0 | 0.0 | 0.00 | 0.10 | 0.09 | 90 | 1015.2 |
| 20260901230532 | 73 | 90 | 0.0 | 0.0 | 0.00 | 0.10 | 0.09 | 90 | 1015.2 |
| 20260901230049 | 73 | 79 | 0.0 | 0.0 | 0.00 | 0.10 | 0.09 | 91 | 1015.2 |
| 20260901225602 | 73 | 62 | 0.0 | 0.0 | 0.00 | 0.10 | 0.09 | 90 | 1015.2 |
| 20260901225117 | 73 | 74 | 0.0 | 0.0 | 0.00 | 0.10 | 0.09 | 90 | 1015.3 |
| 20260901224537 | 73 | 84 | 0.0 | 0.0 | 0.00 | 0.10 | 0.09 | 90 | 1015.2 |
| 20260901224057 | 73 | 88 | 0.0 | 0.0 | 0.00 | 0.10 | 0.09 | 90 | 1015.3 |
| 20260901223615 | 73 | 76 | 0.0 | 0.0 | 0.00 | 0.10 | 0.09 | 90 | 1015.2 |
| 20260901223043 | 74 | 106 | 0.0 | 0.0 | 0.00 | 0.10 | 0.09 | 89 | 1015.1 |
| 20260901222559 | 74 | 84 | 0.0 | 0.0 | 0.00 | 0.10 | 0.09 | 90 | 1015.1 |
| 20260901222123 | 74 | 79 | 0.0 | 0.0 | 0.00 | 0.10 | 0.09 | 89 | 1015.1 |
| 20260901221600 | 74 | 101 | 0.0 | 0.0 | 0.00 | 0.10 | 0.09 | 89 | 1015.1 |
| 20260901221053 | 74 | 84 | 0.0 | 0.0 | 0.00 | 0.10 | 0.09 | 88 | 1015.0 |
| 20260901220614 | 75 | 79 | 0.0 | 0.0 | 0.00 | 0.10 | 0.09 | 88 | 1015.0 |
| 20260901220137 | 75 | 67 | 0.0 | 0.0 | 0.00 | 0.10 | 0.09 | 87 | 1015.0 |
| 20260901215503 | 76 | 95 | 0.0 | 0.0 | 0.00 | 0.10 | 0.09 | 87 | 1015.1 |
| 20260901215025 | 76 | 42 | 0.0 | 0.0 | 0.00 | 0.10 | 0.09 | 87 | 1015.0 |
| 20260901214549 | 76 | 36 | 0.0 | 0.0 | 0.00 | 0.10 | 0.09 | 86 | 1014.9 |
| 20260901214108 | 76 | 92 | 0.0 | 0.0 | 0.00 | 0.10 | 0.09 | 88 | 1014.9 |
| 20260901213626 | 75 | 86 | 0.0 | 0.0 | 0.00 | 0.10 | 0.09 | 88 | 1014.9 |
| 20260901213059 | 75 | 84 | 0.0 | 0.0 | 0.00 | 0.10 | 0.09 | 88 | 1014.9 |
| 20260901212559 | 75 | 87 | 0.0 | 0.0 | 0.00 | 0.10 | 0.09 | 89 | 1014.8 |
| 20260901212123 | 75 | 88 | 0.0 | 0.0 | 0.00 | 0.10 | 0.09 | 89 | 1014.9 |
| 20260901211651 | 75 | 131 | 0.0 | 0.0 | 0.00 | 0.10 | 0.09 | 89 | 1015.0 |
| 20260901211011 | 74 | 42 | 0.0 | 0.0 | 0.00 | 0.10 | 0.09 | 90 | 1015.2 |
| 20260901210041 | 74 | 59 | 0.0 | 0.0 | 0.00 | 0.10 | 0.09 | 90 | 1015.2 |
| 20260901205559 | 74 | 20 | 0.0 | 0.0 | 0.00 | 0.10 | 0.09 | 90 | 1015.3 |
| 20260901205116 | 74 | 43 | 0.0 | 0.0 | 0.00 | 0.10 | 0.09 | 90 | 1015.3 |
| 20260901204530 | 75 | 84 | 0.0 | 0.0 | 0.00 | 0.10 | 0.09 | 89 | 1015.2 |
| 20260901204052 | 75 | 72 | 0.0 | 0.0 | 0.00 | 0.10 | 0.09 | 89 | 1015.2 |
| 20260901203611 | 75 | 107 | 0.0 | 0.0 | 0.00 | 0.10 | 0.09 | 90 | 1015.1 |
| 20260901203138 | 74 | 107 | 0.0 | 0.0 | 0.00 | 0.10 | 0.09 | 90 | 1015.1 |
| 20260901202635 | 74 | 106 | 0.0 | 0.0 | 0.00 | 0.10 | 0.09 | 90 | 1015.1 |
| 20260901202019 | 74 | 91 | 0.0 | 0.0 | 0.00 | 0.10 | 0.09 | 89 | 1015.0 |
| 20260901201541 | 74 | 73 | 0.0 | 0.0 | 0.00 | 0.10 | 0.09 | 90 | 1014.9 |
| 20260901201100 | 74 | 93 | 0.0 | 0.0 | 0.00 | 0.10 | 0.09 | 90 | 1014.9 |
| 20260901200619 | 74 | 116 | 0.0 | 0.0 | 0.00 | 0.10 | 0.09 | 90 | 1014.9 |
| 20260901200040 | 74 | 98 | 0.0 | 0.0 | 0.00 | 0.10 | 0.09 | 90 | 1014.9 |
| 20260901195553 | 74 | 74 | 0.0 | 0.0 | 0.00 | 0.10 | 0.09 | 90 | 1014.9 |
| 20260901195110 | 74 | 98 | 0.0 | 0.0 | 0.00 | 0.10 | 0.09 | 90 | 1015.0 |
| 20260901194634 | 74 | 86 | 0.0 | 0.0 | 0.00 | 0.10 | 0.09 | 90 | 1015.0 |
| 20260901194013 | 74 | 85 | 0.0 | 0.0 | 0.00 | 0.10 | 0.09 | 90 | 1015.0 |
| 20260901193528 | 74 | 89 | 0.0 | 0.0 | 0.00 | 0.10 | 0.09 | 90 | 1015.0 |
| 20260901193056 | 74 | 95 | 0.0 | 0.0 | 0.00 | 0.10 | 0.09 | 90 | 1015.0 |
| 20260901192617 | 74 | 28 | 0.0 | 0.0 | 0.00 | 0.10 | 0.09 | 91 | 1015.0 |
| 20260901192002 | 74 | 67 | 0.0 | 0.0 | 0.00 | 0.10 | 0.09 | 90 | 1014.9 |
| 20260901191600 | 74 | 102 | 0.0 | 0.0 | 0.00 | 0.10 | 0.09 | 91 | 1015.0 |
| 20260901191051 | 74 | 74 | 0.0 | 0.0 | 0.00 | 0.10 | 0.09 | 90 | 1015.0 |
| 20260901190609 | 74 | 65 | 0.0 | 0.0 | 0.00 | 0.10 | 0.09 | 90 | 1014.9 |
| 20260901190037 | 74 | 39 | 0.0 | 0.0 | 0.00 | 0.10 | 0.09 | 91 | 1015.0 |
| 20260901185605 | 74 | 20 | 0.0 | 0.0 | 0.00 | 0.10 | 0.09 | 91 | 1015.0 |
| 20260901185115 | 74 | 359 | 0.0 | 0.0 | 0.00 | 0.10 | 0.09 | 91 | 1014.9 |
| 20260901184541 | 74 | 5 | 0.0 | 0.0 | 0.00 | 0.10 | 0.09 | 90 | 1014.9 |
| 20260901184059 | 74 | 45 | 0.0 | 0.0 | 0.00 | 0.10 | 0.09 | 90 | 1014.9 |
| 20260901183616 | 74 | 38 | 0.0 | 0.0 | 0.00 | 0.10 | 0.09 | 91 | 1014.9 |
| 20260901183143 | 74 | 20 | 0.0 | 0.0 | 0.00 | 0.10 | 0.09 | 90 | 1014.9 |
| 20260901182507 | 74 | 55 | 0.0 | 0.0 | 0.00 | 0.10 | 0.09 | 91 | 1014.8 |
| 20260901182024 | 74 | 4 | 0.0 | 0.0 | 0.00 | 0.10 | 0.09 | 90 | 1014.8 |
| 20260901181614 | 74 | 53 | 0.0 | 1.0 | 0.00 | 0.10 | 0.09 | 91 | 1014.7 |
| 20260901181113 | 74 | 22 | 0.0 | 1.0 | 0.00 | 0.10 | 0.09 | 90 | 1014.6 |
| 20260901180636 | 74 | 86 | 0.0 | 0.0 | 0.00 | 0.10 | 0.09 | 90 | 1014.4 |
| 20260901180029 | 74 | 45 | 0.0 | 0.0 | 0.00 | 0.10 | 0.09 | 91 | 1014.4 |
| 20260901175553 | 74 | 70 | 0.0 | 0.0 | 0.00 | 0.10 | 0.09 | 91 | 1014.4 |
| 20260901175109 | 74 | 33 | 0.0 | 0.0 | 0.00 | 0.10 | 0.09 | 91 | 1014.4 |
| 20260901174634 | 74 | 43 | 0.0 | 0.0 | 0.00 | 0.10 | 0.09 | 91 | 1014.4 |
| 20260901174016 | 74 | 46 | 0.0 | 0.0 | 0.00 | 0.10 | 0.09 | 91 | 1014.4 |
| 20260901173534 | 74 | 69 | 0.0 | 0.0 | 0.00 | 0.10 | 0.09 | 91 | 1014.4 |
| 20260901173052 | 74 | 29 | 0.0 | 0.0 | 0.00 | 0.10 | 0.09 | 91 | 1014.4 |
| 20260901172606 | 74 | 31 | 0.0 | 0.0 | 0.00 | 0.10 | 0.09 | 91 | 1014.3 |
| 20260901172120 | 74 | 95 | 0.0 | 0.0 | 0.00 | 0.10 | 0.09 | 91 | 1014.3 |
| 20260901171538 | 74 | 86 | 0.0 | 0.0 | 0.00 | 0.10 | 0.09 | 90 | 1014.3 |
| 20260901171051 | 74 | 42 | 0.0 | 0.0 | 0.00 | 0.10 | 0.09 | 90 | 1014.3 |
| 20260901170613 | 74 | 41 | 0.0 | 0.0 | 0.00 | 0.10 | 0.09 | 89 | 1014.3 |
| 20260901170145 | 75 | 63 | 0.0 | 0.0 | 0.00 | 0.10 | 0.09 | 88 | 1014.3 |
| 20260901165507 | 76 | 284 | 0.0 | 0.0 | 0.00 | 0.10 | 0.09 | 86 | 1014.3 |
| 20260901165020 | 76 | 271 | 0.0 | 0.0 | 0.00 | 0.10 | 0.09 | 87 | 1014.3 |
| 20260901164617 | 75 | 276 | 0.0 | 0.0 | 0.00 | 0.10 | 0.09 | 86 | 1014.3 |
| 20260901164121 | 76 | 274 | 0.0 | 0.0 | 0.00 | 0.10 | 0.09 | 86 | 1014.3 |
| 20260901163505 | 75 | 174 | 0.0 | 0.0 | 0.00 | 0.10 | 0.09 | 87 | 1014.3 |
| 20260901163048 | 75 | 183 | 0.0 | 0.0 | 0.00 | 0.10 | 0.09 | 87 | 1014.3 |
| 20260901162609 | 75 | 247 | 0.0 | 0.0 | 0.00 | 0.10 | 0.09 | 88 | 1014.3 |
| 20260901162126 | 75 | 258 | 0.0 | 0.0 | 0.00 | 0.10 | 0.09 | 87 | 1014.3 |
| 20260901161543 | 75 | 181 | 0.0 | 0.0 | 0.00 | 0.10 | 0.09 | 89 | 1014.4 |
| 20260901161101 | 75 | 255 | 0.0 | 0.0 | 0.00 | 0.10 | 0.09 | 90 | 1014.4 |
| 20260901160618 | 74 | 249 | 0.0 | 0.0 | 0.00 | 0.10 | 0.09 | 90 | 1014.4 |
| 20260901160141 | 74 | 134 | 0.0 | 0.0 | 0.00 | 0.10 | 0.09 | 91 | 1014.3 |
| 20260901155509 | 73 | 204 | 0.0 | 0.0 | 0.00 | 0.12 | 0.09 | 90 | 1014.3 |